Home > Weather > Pirmasens > Past weeks

Flag for Germany Past Weather in Pirmasens, Rhineland-Palatinate, Germany — Yesterday and Last 2 Weeks

Now
76 °F

Passing clouds.


Feels Like: 78 °F
Forecast: 56 / 68 °F
Wind: 6 mph from Northwest

Location: Ramstein

Current Time: Jul 30, 2016 at 3:09:47 PM

Latest Report: Jul 30, 2016 at 1:58 PM


Visibility: N/A

Pressure: 29.93 "Hg

Humidity: 60%

Dew Point: 61 °F

Location of PirmasensLocation

Past Weather in Pirmasens — Graph

°F

Pirmasens Temperature Yesterday

Maximum temperature yesterday: 78 °F (at 3:58 PM)
Minimum temperature yesterday: 62 °F (at 4:58 AM)
Average temperature yesterday: 70 °F

High & Low Weather Summary for the Past Weeks

 TemperatureHumidityPressure
High93 °F (Jul 20, 3:58 PM)100% (Jul 16, 3:58 AM)30.33 "Hg (Jul 16, 3:58 AM)
Low43 °F (Jul 16, 4:59 AM)30% (Jul 20, 3:58 PM)29.89 "Hg (Jul 20, 11:58 PM)
Average69 °F78%30.07 "Hg
* Reported Jul 15 1:58 PM — Jul 30 1:58 PM, Pirmasens, Weather by CustomWeather, © 2016

Note: Actual official high and low records may vary slightly from our data, if they occured in-between our weather recording intervals... More about our weather records

Advertising

Pirmasens Weather History for the Previous 24 Hours

Scroll right to see more
 ConditionsComfort  
Time TempWeatherWind HumidityBarometerVisibility
1:58 PM
Sat, Jul 30
76 °FPassing clouds.6 mph60%29.93 "HgN/A
12:58 PM74 °FBroken clouds.3 mph66%29.93 "HgN/A
11:58 AM72 °FScattered clouds.6 mph69%29.93 "HgN/A
10:58 AM72 °FPassing clouds.6 mph73%29.93 "HgN/A
9:58 AM68 °FPassing clouds.2 mph83%29.94 "HgN/A
8:58 AM65 °FOvercast.3 mph85%29.94 "HgN/A
7:58 AM63 °FPartly sunny.No wind94%29.94 "HgN/A
6:58 AM62 °FCloudy.No wind96%29.93 "HgN/A
5:58 AM59 °FPassing clouds.1 mph100%29.93 "HgN/A
4:58 AM57 °FPassing clouds.No wind100%29.94 "HgN/A
3:58 AM55 °FClear.No wind100%29.94 "HgN/A
2:58 AM55 °FClear.No wind100%29.95 "HgN/A
1:58 AM59 °FClear.No wind100%29.95 "HgN/A
12:58 AM59 °FClear.No wind100%29.95 "HgN/A
11:58 PM
Fri, Jul 29
63 °FClear.No wind88%29.95 "HgN/A
10:58 PM67 °FClear.No wind73%29.94 "HgN/A
9:58 PM69 °FSunny.3 mph68%29.93 "HgN/A
8:58 PM72 °FPassing clouds.7 mph61%29.92 "HgN/A
7:58 PM75 °FPassing clouds.12 mph56%29.91 "HgN/A
6:58 PM75 °FPassing clouds.9 mph57%29.91 "HgN/A
5:58 PM78 °FScattered clouds.10 mph54%29.91 "HgN/A
4:58 PM77 °FScattered clouds.18 mph54%29.92 "HgN/A
3:58 PM78 °FScattered clouds.16 mph53%29.92 "HgN/A
Weather by CustomWeather, © 2016

See weather overviewHow to use our weather pages